Weather History for Honolulu, HI

Change the Weather History Date:

Monday, May 13, 2013

  Actual Average Record
Temperature  
Mean Temperature 77 °F 77 °F  
Max Temperature 83 °F 84 °F 89 °F (2005)
Min Temperature 71 °F 71 °F 64 °F (1952)
Degree Days  
Heating Degree Days 0 0  
Month to date heating degree days 0 0  
Since 1 July heating degree days 0 0  
Cooling Degree Days 12 12  
Month to date cooling degree days 144 156  
Year to date cooling degree days 1232 1263  
Growing Degree Days 26 (Base 50)    
Moisture  
Dew Point 67 °F    
Average Humidity 76    
Maximum Humidity 93    
Minimum Humidity 58    
Precipitation  
Precipitation T in 0.02 in 1.34 in (1960)
Month to date precipitation 0.23 0.30  
Year to date precipitation 8.00 7.25  
Snow  
Snow 0.00 in - - ()
Month to date snowfall 0.0  
Since 1 July snowfall 0.0  
Snow Depth 0.00 in    
Sea Level Pressure  
Sea Level Pressure 30.05 in    
Wind  
Wind Speed 12 mph (ENE)    
Max Wind Speed 22 mph    
Max Gust Speed 30 mph    
Visibility 10 miles    
Events Rain    
T = Trace of Precipitation, MM = Missing Value Source: NWS Daily Summary

Daily Weather History Graph

Daily Weather History Graph

Search for Another Location

Airport:

Trip Planner

Search our weather history database for the weather conditions in past years. The results will help you decide how hot, cold, wet, or windy it might be!

Date:

Astronomy

May. 13, 2013 Rise Set
Actual Time 5:54 AM HST 7:02 PM HST
Civil Twilight 5:30 AM HST 7:26 PM HST
Nautical Twilight 5:02 AM HST 7:54 PM HST
Astronomical Twilight 4:33 AM HST 8:23 PM HST
Moon 8:52 AM HST (5/13) 10:18 PM HST (5/13)
Length of Visible Light 13h 55m
Length of Day
13h 07m
Waxing Crescent, 13% of the Moon is Illuminated
May 13
Waxing Crescent
May 17
First Quarter
May 24
Full
May 31
Last Quarter
Jun 8
New

Hourly Weather History & Observations

Time (HST) Temp. Heat Index Dew Point Humidity Pressure Visibility Wind Dir Wind Speed Gust Speed Precip Events Conditions
12:53 AM 73.9 °F - 66.9 °F 79% 30.06 in 10.0 mi East 12.7 mph - N/A   Mostly Cloudy
1:53 AM 73.9 °F - 66.9 °F 79% 30.05 in 10.0 mi ENE 9.2 mph - N/A   Mostly Cloudy
2:53 AM 73.9 °F - 66.9 °F 79% 30.03 in 10.0 mi North 3.5 mph - N/A   Mostly Cloudy
3:53 AM 72.0 °F - 69.1 °F 91% 30.03 in 10.0 mi East 3.5 mph - N/A   Mostly Cloudy
4:53 AM 72.0 °F - 68.0 °F 87% 30.04 in 10.0 mi NE 5.8 mph - 0.00 in   Mostly Cloudy
5:53 AM 73.0 °F - 68.0 °F 84% 30.04 in 10.0 mi ENE 8.1 mph - N/A   Mostly Cloudy
6:53 AM 73.0 °F - 68.0 °F 84% 30.05 in 10.0 mi ENE 11.5 mph - 0.00 in Rain Light Rain
7:53 AM 75.0 °F - 68.0 °F 79% 30.07 in 10.0 mi ENE 13.8 mph - 0.00 in   Mostly Cloudy
8:53 AM 77.0 °F - 66.9 °F 71% 30.08 in 10.0 mi East 15.0 mph 23.0 mph N/A   Mostly Cloudy
10:53 AM 80.1 °F 82.1 °F 66.0 °F 62% 30.08 in 10.0 mi ENE 16.1 mph 25.3 mph N/A   Mostly Cloudy
11:53 AM 81.0 °F 83.0 °F 66.0 °F 60% 30.08 in 10.0 mi NE 19.6 mph 26.5 mph N/A   Mostly Cloudy
12:53 PM 81.0 °F 83.0 °F 66.0 °F 60% 30.06 in 10.0 mi NE 13.8 mph - N/A   Mostly Cloudy
1:53 PM 80.6 °F 82.7 °F 66.2 °F 61% 30.05 in 10.0 mi NE 16.1 mph 25.3 mph N/A   Mostly Cloudy
2:53 PM 82.0 °F 84.1 °F 66.0 °F 58% 30.04 in 10.0 mi ENE 16.1 mph 24.2 mph N/A   Mostly Cloudy
3:53 PM 80.1 °F 81.9 °F 64.9 °F 60% 30.03 in 10.0 mi ENE 16.1 mph 26.5 mph N/A   Mostly Cloudy
4:53 PM 79.0 °F - 66.0 °F 64% 30.02 in 10.0 mi ENE 11.5 mph - N/A   Mostly Cloudy
5:53 PM 77.0 °F - 66.9 °F 71% 30.03 in 10.0 mi ENE 15.0 mph - N/A   Mostly Cloudy
6:53 PM 75.9 °F - 66.9 °F 74% 30.04 in 10.0 mi ENE 15.0 mph - N/A   Mostly Cloudy
7:53 PM 75.0 °F - 66.0 °F 73% 30.05 in 10.0 mi ENE 13.8 mph - N/A   Mostly Cloudy
8:19 PM 75.2 °F - 66.2 °F 73% 30.06 in 10.0 mi ENE 10.4 mph - N/A   Mostly Cloudy
8:53 PM 75.0 °F - 66.9 °F 76% 30.07 in 10.0 mi ENE 12.7 mph - N/A   Mostly Cloudy
9:53 PM 75.0 °F - 66.9 °F 76% 30.08 in 10.0 mi NE 11.5 mph - N/A   Mostly Cloudy
10:53 PM 75.0 °F - 66.9 °F 76% 30.09 in 10.0 mi ENE 13.8 mph - N/A   Mostly Cloudy
11:53 PM 75.0 °F - 66.0 °F 73% 30.08 in 10.0 mi ENE 12.7 mph - N/A   Mostly Cloudy